Theta_e
315 313 314 314 314 316 315 315 316 316 315 316 315 314 314 312 309 309 309 309 310 312 312 311 313 314 314 313 313 313 312 311 310 310 310 310 309 309 309 309 308 311 311 309
315 315 315 314 315 315 314 318 317 315 316 317 316 316 311 310 310 310 309 309 309 310 310 311 312 314 314 313 313 313 312 312 311 310 310 309 309 308 308 307 308 310 309 309
316 316 315 315 315 315 314 318 317 317 316 316 317 317 313 313 313 312 311 309 309 309 310 311 312 313 313 313 313 314 313 313 312 312 310 309 308 308 307 307 307 307 308 309
316 315 313 315 315 314 315 315 317 317 318 319 317 321 316 313 313 313 312 310 309 309 310 310 311 312 313 314 313 313 313 313 312 311 310 309 309 307 308 307 307 307 307 308
317 313 312 315 314 314 315 315 317 319 318 319 318 317 315 314 314 314 311 310 310 310 309 310 311 313 314 313 313 313 313 313 313 312 312 311 309 309 309 308 307 307 306 306
314 313 313 314 315 317 316 318 318 319 318 320 319 317 316 315 314 314 313 312 311 310 310 311 313 313 313 313 312 312 312 312 312 312 312 311 311 311 309 309 308 307 305 305
318 315 314 316 317 316 315 318 319 320 320 321 319 319 316 315 314 314 313 313 312 310 309 309 311 311 312 313 313 312 312 312 311 311 310 310 311 311 310 310 308 306 304 303
323 322 318 317 317 318 318 319 317 324 323 321 318 320 318 315 315 314 312 311 311 311 309 311 311 311 312 312 312 311 311 311 310 309 309 309 309 309 308 308 309 306 303 299
321 321 318 318 317 317 319 320 318 318 316 317 318 318 316 314 316 317 316 314 312 312 309 309 311 311 311 311 311 310 310 309 309 308 309 307 307 306 306 307 306 303 298 296
319 322 320 320 319 317 318 317 319 315 317 326 321 319 319 318 318 317 316 313 311 310 310 309 309 310 311 311 311 310 309 308 308 308 305 305 305 305 304 302 299 296 296 296
317 318 319 317 321 321 317 319 319 320 317 321 324 321 315 318 317 315 314 312 311 310 309 308 309 310 310 310 310 309 308 308 307 303 303 304 302 301 300 298 296 296 296 298
317 315 316 319 316 317 318 319 318 315 322 316 319 321 316 315 314 314 312 312 311 309 309 308 309 309 309 309 308 307 307 307 303 303 302 302 299 297 297 296 296 295 295 296
316 313 314 315 314 316 319 318 317 316 311 316 313 315 314 314 314 312 311 311 310 311 310 308 308 309 309 308 307 307 306 302 302 302 301 299 297 296 295 295 295 295 295 294
314 316 315 315 315 318 319 318 316 316 311 317 318 317 315 314 314 313 312 311 310 311 310 309 307 308 308 307 307 306 303 301 302 299 297 296 296 295 295 295 295 295 294 293
315 315 316 316 317 318 319 319 318 318 316 316 316 316 314 315 314 313 312 312 312 311 310 308 307 307 307 307 306 305 301 301 301 300 297 296 297 296 295 294 294 295 296 293
315 314 317 317 317 317 319 318 316 316 315 315 314 314 315 313 312 313 312 312 312 310 310 309 308 307 307 306 304 302 301 301 301 301 299 297 297 296 296 295 294 295 294 292
314 310 310 318 313 314 317 314 314 313 313 312 313 313 314 314 314 313 312 311 311 310 309 307 307 307 306 304 302 301 300 300 299 298 298 298 297 295 294 294 294 293 291 289
309 306 307 315 313 319 315 312 312 312 312 312 315 315 314 313 313 312 311 310 310 309 308 307 307 306 304 302 300 300 299 299 299 298 297 296 296 296 295 293 290 289 288 287
312 309 311 312 316 315 314 313 314 315 314 314 315 314 313 313 312 310 309 309 309 308 307 307 307 304 302 300 300 300 299 298 299 298 296 293 292 291 290 289 288 287 287 285
309 306 305 312 316 316 309 310 314 315 313 314 313 312 312 312 314 312 308 305 305 306 307 306 302 300 300 299 299 298 296 294 293 291 292 292 290 289 288 288 287 285 285 284
306 308 305 301 309 306 308 310 311 306 310 311 311 311 310 313 311 309 305 303 305 304 302 300 299 298 299 299 298 297 291 291 291 291 290 289 288 288 287 286 285 285 284 284
308 307 311 306 311 313 310 311 312 309 308 309 309 310 309 308 306 305 303 301 302 299 299 298 297 298 298 297 297 294 291 291 290 290 289 288 287 287 286 285 284 284 284 283
313 310 308 308 308 307 309 310 308 309 309 308 310 309 306 305 305 303 301 301 299 298 297 296 296 298 297 297 295 292 291 290 290 288 288 287 287 286 285 284 284 283 282 281
310 310 307 310 310 309 309 309 309 308 309 308 306 305 305 304 302 301 299 297 296 296 296 296 297 297 296 295 291 291 290 289 289 288 286 286 285 284 284 284 283 282 281 282
312 312 312 312 311 310 310 308 309 310 306 305 304 304 302 302 300 299 297 296 295 296 296 295 293 293 292 291 290 290 289 288 288 286 285 285 283 283 283 282 282 282 282 282
311 312 312 314 311 311 311 309 308 305 304 304 301 301 301 299 297 297 295 296 297 296 293 294 293 292 292 292 289 289 288 288 287 286 284 284 283 283 282 282 282 282 281 280
Wind_Speed
4 6 1 4 3 2 1 3 3 4 4 8 5 9 14 5 4 8 7 9 8 6 5 10 21 23 21 18 15 13 12 12 13 14 15 16 18 18 20 22 22 25 23 21
6 3 2 5 4 3 6 3 4 6 6 3 9 10 7 7 4 7 10 9 8 6 7 14 20 18 15 16 13 13 13 13 15 17 20 20 20 24 26 26 24 27 28 28
5 2 2 5 5 7 3 2 4 6 7 3 6 7 6 4 4 5 4 6 7 9 8 6 10 12 11 13 12 12 13 14 16 19 22 23 24 25 26 28 28 32 32 32
1 2 3 6 3 4 5 4 4 6 4 2 4 3 3 3 3 3 4 5 7 8 5 4 5 6 9 11 12 14 16 16 19 21 25 28 30 30 35 36 35 32 28 33
4 1 4 3 3 2 7 7 8 5 4 3 9 3 5 3 4 0 7 7 5 5 6 5 6 8 8 8 6 8 12 16 17 19 21 24 31 37 39 39 35 32 29 29
3 1 3 1 4 1 6 6 4 3 3 3 4 1 4 5 4 5 3 6 6 4 5 6 8 7 7 7 6 5 8 12 13 18 23 26 30 34 36 38 39 36 29 25
6 4 4 2 5 7 8 6 4 5 5 3 6 5 2 1 5 5 5 1 3 8 9 6 5 5 3 6 5 7 9 11 14 19 23 27 31 34 36 37 36 33 21 19
5 6 6 5 2 2 4 4 4 1 1 5 7 3 3 7 6 9 5 6 7 7 5 2 5 7 10 11 10 9 10 15 24 28 31 32 29 25 26 27 30 27 24 20
5 4 5 4 4 3 4 4 1 3 2 3 4 6 6 10 5 8 5 10 8 8 8 7 8 9 11 10 10 13 20 26 33 30 27 26 22 23 22 21 16 17 26 22
3 4 1 6 4 3 2 1 4 4 2 3 5 5 6 8 14 18 14 6 8 6 8 7 10 9 7 9 14 21 30 33 32 27 26 23 21 16 13 7 17 25 20 14
3 3 7 4 3 1 5 4 4 0 4 3 2 5 5 12 11 9 7 7 4 5 5 5 8 13 17 18 17 21 26 24 25 24 23 19 10 9 13 14 18 14 9 2
3 3 3 5 9 3 1 4 5 3 5 3 4 10 13 6 13 3 6 6 6 5 4 4 5 11 16 17 18 22 27 24 22 27 21 11 12 15 16 14 11 7 2 2
1 2 3 7 6 7 4 6 3 3 2 6 3 5 7 20 16 7 7 7 7 3 4 4 8 13 18 23 27 27 26 17 21 26 17 12 14 13 13 13 10 6 4 3
6 3 6 5 4 3 9 14 9 4 2 5 15 17 22 9 7 7 7 7 5 4 5 6 7 13 18 20 23 24 16 16 20 16 6 5 5 6 10 9 6 3 2 6
4 5 4 6 8 5 16 17 17 11 14 6 15 12 13 3 2 5 7 6 7 7 7 7 7 10 16 19 22 18 12 16 17 13 5 5 7 6 5 6 5 8 11 10
3 4 2 9 7 8 18 15 13 13 14 11 10 13 2 6 6 6 10 14 14 6 8 13 11 14 17 18 18 13 18 23 20 17 6 4 2 1 3 10 6 10 12 12
3 3 2 6 4 5 10 7 5 6 7 8 7 5 3 9 8 10 17 16 14 7 13 13 13 15 18 15 11 17 17 16 10 3 4 4 5 6 7 7 9 11 9 9
5 4 1 3 1 4 8 5 6 5 7 7 3 4 6 9 12 11 12 12 7 13 16 14 16 19 19 13 18 14 9 6 9 10 7 8 8 9 8 5 5 7 10 14
5 5 1 2 3 6 10 9 2 2 7 4 4 10 12 16 15 11 6 8 12 17 17 19 21 17 12 18 16 10 13 14 12 8 8 5 7 4 5 7 9 11 13 14
6 5 3 3 4 5 8 4 4 1 5 5 6 8 16 14 11 12 7 10 15 22 21 15 10 13 15 10 7 9 13 8 9 9 5 3 4 5 7 9 10 11 14 15
2 1 4 3 6 8 9 7 1 4 9 4 9 14 12 7 4 8 10 14 19 15 10 14 19 18 16 8 8 7 4 8 6 4 4 6 8 10 10 10 12 14 16 14
6 3 4 2 3 8 4 2 1 7 3 13 13 3 3 4 5 10 10 9 10 12 18 23 18 16 8 8 9 3 3 1 4 6 6 8 11 10 9 12 14 14 14 12
3 7 5 9 7 4 4 9 6 8 12 5 2 3 2 7 8 6 6 8 10 13 18 19 17 11 9 10 7 9 5 0 3 6 8 10 9 10 13 13 13 13 11 17
4 3 4 6 8 10 9 15 14 6 1 3 4 4 6 5 6 5 6 8 10 12 14 17 15 12 16 16 3 1 0 1 4 7 10 8 12 12 12 12 11 11 17 17
6 6 5 14 16 18 15 10 4 4 2 1 6 2 9 5 4 5 7 7 13 14 14 12 11 11 11 9 4 2 2 6 10 11 11 11 9 10 14 13 11 15 15 14
7 15 7 14 14 11 13 1 0 3 2 6 10 11 5 1 5 6 5 12 12 10 8 10 11 8 5 7 1 4 7 10 12 12 11 8 10 10 15 13 15 12 11 14
Wind_Direction
7 68 66 284 317 294 60 357 329 294 282 358 288 282 276 156 115 101 84 104 111 82 9 114 147 149 146 154 166 189 201 217 225 229 231 237 245 243 240 252 252 243 250 249
29 98 246 301 36 46 40 10 316 290 304 314 301 300 321 135 175 153 135 125 118 92 68 96 121 138 155 170 191 205 226 237 248 251 255 249 255 257 263 268 255 234 238 241
124 222 1 56 22 14 322 170 279 253 319 332 340 347 1 358 91 127 99 134 137 135 125 125 139 165 181 197 216 241 253 256 259 263 259 257 253 255 258 260 256 252 246 238
144 23 42 25 62 21 316 242 281 285 38 316 19 276 291 304 5 88 121 101 73 71 72 111 137 172 206 233 248 252 252 254 256 253 250 251 253 250 258 255 258 252 248 233
258 57 45 50 301 289 258 307 279 301 163 93 342 54 275 58 262 255 33 54 86 134 137 149 161 151 186 205 221 239 251 261 269 267 267 262 256 257 263 267 264 257 245 235
242 68 83 267 296 40 284 311 354 35 101 54 274 148 326 345 322 70 82 190 175 173 193 193 178 178 178 192 222 254 270 274 296 302 294 287 279 275 269 267 263 261 245 228
352 8 323 5 4 348 17 29 1 17 12 222 329 5 256 93 78 141 192 8 269 225 217 226 260 209 164 113 59 30 17 346 333 321 315 308 295 285 280 280 275 261 211 184
35 333 2 344 68 300 332 88 127 246 347 283 323 229 195 147 106 90 138 173 222 233 230 311 34 74 58 33 36 17 356 333 331 326 315 306 290 286 290 288 281 254 216 168
10 297 327 23 317 110 327 32 154 121 15 46 285 289 317 239 21 35 23 339 336 32 44 48 50 53 34 40 12 350 340 330 331 324 314 303 293 296 298 296 276 205 151 133
318 307 321 299 351 9 88 228 29 11 8 286 299 291 234 324 334 343 343 46 53 65 55 39 45 56 46 353 337 335 331 328 330 325 319 302 291 286 291 198 151 143 139 128
25 93 295 349 49 63 352 24 14 49 135 213 272 256 240 317 325 318 350 59 42 41 72 78 47 18 347 331 318 324 327 326 330 334 319 289 247 208 183 167 147 148 156 198
345 124 293 282 298 236 113 120 102 97 320 264 251 272 279 291 323 63 42 20 353 34 44 32 1 327 318 320 320 329 330 328 332 331 315 242 200 168 157 156 153 147 135 321
189 344 346 350 344 15 3 293 110 164 119 222 216 260 316 319 319 45 24 348 331 349 336 324 308 325 318 330 326 325 328 325 335 332 290 214 187 175 171 162 150 153 164 345
101 175 174 207 215 202 281 286 296 177 201 247 254 283 293 334 46 4 341 321 319 293 321 302 304 312 311 317 318 323 330 344 344 338 270 224 207 191 172 156 142 120 346 327
116 209 237 233 243 255 272 283 289 280 258 233 278 282 312 82 313 281 269 290 280 267 270 286 289 310 312 322 323 324 328 341 335 329 247 165 120 112 100 97 55 333 311 304
355 265 200 289 232 236 264 277 270 271 275 267 271 282 236 276 282 314 322 313 310 275 287 317 306 312 313 311 315 325 326 323 314 294 226 148 146 131 346 334 320 267 288 295
217 171 111 267 35 359 299 242 208 226 261 281 275 258 308 320 320 327 318 309 302 302 305 308 300 289 289 304 315 316 322 328 332 351 295 274 251 257 230 245 262 282 289 312
169 111 102 263 90 198 248 282 288 280 269 269 258 290 282 301 311 313 291 285 288 312 304 304 294 290 309 304 308 305 313 338 295 309 291 288 264 278 298 282 293 329 332 330
165 134 211 236 202 286 294 278 237 188 264 172 265 314 326 323 313 311 307 306 313 301 289 292 294 304 307 313 312 313 320 324 300 308 323 31 49 346 339 352 346 341 336 335
67 60 139 178 255 266 236 234 220 264 285 220 320 305 312 314 300 307 12 317 307 300 291 296 313 320 317 324 355 354 344 354 73 83 48 332 338 11 11 349 343 343 338 336
350 329 215 184 246 280 250 260 306 74 287 242 301 305 304 298 307 336 326 298 307 318 354 345 342 328 320 308 339 329 83 78 66 31 12 21 14 360 347 347 346 345 338 337
184 177 227 217 221 270 172 45 127 245 272 303 314 322 311 288 317 305 304 322 349 356 339 333 326 320 334 345 329 276 113 116 35 21 8 359 350 349 352 346 343 344 340 341
227 199 211 194 217 236 234 292 223 287 306 321 341 332 318 301 299 325 294 321 328 331 325 330 321 306 321 312 276 199 180 354 0 2 358 348 349 348 348 351 349 351 352 343
262 252 236 350 262 265 298 290 295 304 325 7 324 323 328 305 272 307 311 319 321 317 325 327 332 342 327 323 138 147 255 330 16 1 349 349 345 350 356 356 354 348 344 339
203 192 236 259 267 278 271 268 289 100 53 274 248 197 238 271 317 295 307 315 319 333 347 8 15 339 25 25 359 312 8 0 356 353 348 343 352 357 349 340 342 341 341 337
200 246 233 256 265 262 288 335 85 92 346 19 344 291 215 194 279 288 305 315 341 352 338 332 344 332 293 288 304 350 349 354 358 352 352 352 343 336 341 340 339 346 339 341